ONEWEB-0082, 45452

Orbit data source: Space-Track

ONEWEB-0082, 45452 is a payload satellite owned by One Web (UK) in LEO that was launched on Sat, 21 Mar 2020 UTC via a SOYUZ-2-1B launch vehicle from the Tyuratam Missile And Space Complex (TTMTR). Payload-class satellites include a variety of spacecraft equipped with specific instruments for various scientific and technological missions. These include communications satellites like Starlink; space stations such as the ISS; scientific satellites like the Hubble; Earth observation satellites from companies like Planet Labs, Umbra, and HawkEye 360; GPS; miniature CubeSats for education and research; and military/defense satellites.

Loading next visibility...
Identifier
45452, 2020-020AE
Orbit
LEO
Last TLE update
14 hours ago
Origin
Manufacturer
One Web
Mission
Operational Commercial Communications
Bus & Motor
ARROW, Unknown motor
Mass
148 kg wet, ~140 kg dry
Launch date (UTC)
2020-03-21 (5 years ago)
Launch vehicle
SOYUZ-2-1B
Launch site
Tyuratam Missile And Space Complex (TTMTR)
Object type
Payload
Rocket body
Debris
Shape & HBR
Trap Box + 2 Pan, 2.5 m
Radar Cross Section
2.957 m², Medium (>0.1 m² and < 1m²)

Expand to show TLE details & history

TLE from 14 hours ago
0 ONEWEB-0082
1 45452U 20020AE  25199.38223185  .00000538  00000-0  14816-2 0  9990
2 45452  87.8821  87.5654 0002001  81.5140 278.6214 13.11415619258921
Epoch: 2025-07-18T09:10Z
TLE epoch observation values (Epoch: 2025-07-18T09:10:24.831Z)
Latitude
-0.00011°
Longitude
13.52744°
Altitude
1,220.349 km
Speed
7.244 km/s
True Right ascension
05h 50m 15s
True Declination
0° 00' 00"
Sunlit
Object was in daylight at epoch
Visualization orbit readout
Latitude
-73.16141°
Longitude
6.42577°
Altitude
1,246.019 km
Speed
7.231 km/s
Apparent Right ascension
01h 41m 35s
Apparent Declination
-62° 51' 08"
Sunlit
Object is in daylight
Visualization observer readout
Local Sidereal Time
12:14:35
Azimuth
202.384° SSW
Elevation
-63.641°
Doppler factor
1
Orbital elements
Apogee altitude
1,216.325 km
Perigee altitude
1,213.287 km
Semi-major axis
7,592.943 km
Eccentricity
0.0002
Inclination
87.8821°
RAAN
87.5654°
Arg. of periapsis
81.514°
True anomaly
278.59873°
Mean anomaly
278.6214°
Eccentric anomaly
278.61006°
Mean motion
3.28041 °/min
Orbital period
109.74 mins
BSTAR
0.0014816
Loading maneuver chart data...
Loading SW <> Apogee altitude chart data...
Loading historical data...
Loading historical data...
Loading historical data...
Loading historical data...
Loading historical data...
Loading historical data...
Loading historical data...
|